Wetterdaten: Dienstag, 17.02.2015
Datum Zeit Temp. A. Feuchte A. Luftdruck Regen Wind Richtung Richtung Sonnenschein ET UV Solar Taupunkt Windchill Windben Empfang
17.02.2015 00:00 -0,5 C 75 % 1022,1 hPa 0,0 l/m 0,0 km/h (0 Bft) S 177 0 min 0,000 mm 0,0 UV-I 0 W/m -4,4 C -0,5 C 0,0 km/h (0 Bft) 0,00 %
17.02.2015 00:15 -0,8 C 75 % 1022,3 hPa 0,0 l/m 0,0 km/h (0 Bft) S-SW 199 0 min 0,000 mm 0,0 UV-I 0 W/m -4,7 C -0,8 C 0,0 km/h (0 Bft) 0,00 %
17.02.2015 00:30 -1,3 C 77 % 1022,5 hPa 0,0 l/m 0,0 km/h (0 Bft) S-SW 206 0 min 0,000 mm 0,0 UV-I 0 W/m -4,8 C -1,3 C 0,0 km/h (0 Bft) 0,00 %
17.02.2015 00:45 -1,5 C 79 % 1022,6 hPa 0,0 l/m 0,0 km/h (0 Bft) S 191 0 min 0,000 mm 0,0 UV-I 0 W/m -4,7 C -1,5 C 0,0 km/h (0 Bft) 0,00 %
17.02.2015 01:00 -1,7 C 80 % 1022,8 hPa 0,0 l/m 0,0 km/h (0 Bft) S 186 0 min 0,000 mm 0,0 UV-I 0 W/m -4,7 C -1,7 C 0,0 km/h (0 Bft) 0,00 %
17.02.2015 01:15 -1,8 C 79 % 1023,1 hPa 0,0 l/m 0,0 km/h (0 Bft) S-SW 206 0 min 0,000 mm 0,0 UV-I 0 W/m -4,9 C -1,8 C 0,0 km/h (0 Bft) 0,00 %
17.02.2015 01:30 -2,2 C 80 % 1023,4 hPa 0,0 l/m 0,0 km/h (0 Bft) S-SW 201 0 min 0,000 mm 0,0 UV-I 0 W/m -5,2 C -2,2 C 0,0 km/h (0 Bft) 0,00 %
17.02.2015 01:45 -2,0 C 81 % 1023,4 hPa 0,0 l/m 0,0 km/h (0 Bft) W-SW 254 0 min 0,000 mm 0,0 UV-I 0 W/m -4,8 C -2,0 C 0,0 km/h (0 Bft) 0,00 %
17.02.2015 02:00 -2,1 C 80 % 1023,7 hPa 0,0 l/m 0,0 km/h (0 Bft) S-SW 207 0 min 0,000 mm 0,0 UV-I 0 W/m -5,1 C -2,1 C 0,0 km/h (0 Bft) 0,00 %
17.02.2015 02:15 -2,6 C 77 % 1023,7 hPa 0,0 l/m 0,0 km/h (0 Bft) S-SW 202 0 min 0,000 mm 0,0 UV-I 0 W/m -6,1 C -2,6 C 0,0 km/h (0 Bft) 0,00 %
17.02.2015 02:30 -2,9 C 78 % 1023,6 hPa 0,0 l/m 0,0 km/h (0 Bft) SW 216 0 min 0,000 mm 0,0 UV-I 0 W/m -6,2 C -2,9 C 0,0 km/h (0 Bft) 0,00 %
17.02.2015 02:45 -2,8 C 78 % 1023,5 hPa 0,0 l/m 0,0 km/h (0 Bft) S-SW 212 0 min 0,000 mm 0,0 UV-I 0 W/m -6,1 C -2,8 C 0,0 km/h (0 Bft) 0,00 %
17.02.2015 03:00 -3,1 C 78 % 1023,8 hPa 0,0 l/m 0,0 km/h (0 Bft) S-SW 208 0 min 0,000 mm 0,0 UV-I 0 W/m -6,4 C -3,1 C 0,0 km/h (0 Bft) 0,00 %
17.02.2015 03:15 -3,5 C 79 % 1023,8 hPa 0,0 l/m 0,0 km/h (0 Bft) S-SW 198 0 min 0,000 mm 0,0 UV-I 0 W/m -6,6 C -3,5 C 0,0 km/h (0 Bft) 0,00 %
17.02.2015 03:30 -3,6 C 80 % 1024,1 hPa 0,0 l/m 0,0 km/h (0 Bft) S 187 0 min 0,000 mm 0,0 UV-I 0 W/m -6,5 C -3,6 C 0,0 km/h (0 Bft) 0,00 %
17.02.2015 03:45 -3,5 C 80 % 1024,0 hPa 0,0 l/m 0,0 km/h (0 Bft) S 184 0 min 0,000 mm 0,0 UV-I 0 W/m -6,4 C -3,5 C 0,0 km/h (0 Bft) 0,00 %
17.02.2015 04:00 -3,6 C 79 % 1024,4 hPa 0,0 l/m 0,0 km/h (0 Bft) S 176 0 min 0,000 mm 0,0 UV-I 0 W/m -6,7 C -3,6 C 0,0 km/h (0 Bft) 0,00 %
17.02.2015 04:15 -3,3 C 80 % 1024,2 hPa 0,0 l/m 0,0 km/h (0 Bft) S-SW 193 0 min 0,000 mm 0,0 UV-I 0 W/m -6,2 C -3,3 C 0,0 km/h (0 Bft) 0,00 %
17.02.2015 04:30 -3,3 C 81 % 1024,7 hPa 0,0 l/m 0,0 km/h (0 Bft) S-SW 200 0 min 0,000 mm 0,0 UV-I 0 W/m -6,1 C -3,3 C 0,0 km/h (0 Bft) 0,00 %
17.02.2015 04:45 -4,1 C 80 % 1024,9 hPa 0,0 l/m 0,0 km/h (0 Bft) S 183 0 min 0,000 mm 0,0 UV-I 0 W/m -7,0 C -4,1 C 0,0 km/h (0 Bft) 0,00 %
17.02.2015 05:00 -3,8 C 81 % 1025,2 hPa 0,0 l/m 0,0 km/h (0 Bft) SW 217 0 min 0,000 mm 0,0 UV-I 0 W/m -6,6 C -3,8 C 0,0 km/h (0 Bft) 0,00 %
17.02.2015 05:15 -3,8 C 81 % 1025,1 hPa 0,0 l/m 0,0 km/h (0 Bft) S 185 0 min 0,000 mm 0,0 UV-I 0 W/m -6,6 C -3,8 C 0,0 km/h (0 Bft) 0,00 %
17.02.2015 05:30 -3,4 C 80 % 1025,3 hPa 0,0 l/m 0,0 km/h (0 Bft) W-SW 242 0 min 0,000 mm 0,0 UV-I 0 W/m -6,3 C -3,4 C 0,0 km/h (0 Bft) 0,00 %
17.02.2015 05:45 -3,5 C 81 % 1025,3 hPa 0,0 l/m 0,0 km/h (0 Bft) S-SW 209 0 min 0,000 mm 0,0 UV-I 0 W/m -6,3 C -3,5 C 0,0 km/h (0 Bft) 0,00 %
17.02.2015 06:00 -3,7 C 80 % 1025,5 hPa 0,0 l/m 0,0 km/h (0 Bft) S 179 0 min 0,000 mm 0,0 UV-I 0 W/m -6,6 C -3,7 C 0,0 km/h (0 Bft) 0,00 %
17.02.2015 06:15 -4,0 C 81 % 1025,7 hPa 0,0 l/m 0,0 km/h (0 Bft) SW 219 0 min 0,000 mm 0,0 UV-I 0 W/m -6,8 C -4,0 C 0,0 km/h (0 Bft) 0,00 %
17.02.2015 06:30 -4,1 C 81 % 1026,2 hPa 0,0 l/m 0,0 km/h (0 Bft) S-SW 205 0 min 0,000 mm 0,0 UV-I 0 W/m -6,9 C -4,1 C 0,0 km/h (0 Bft) 0,00 %
17.02.2015 06:45 -4,1 C 81 % 1026,4 hPa 0,0 l/m 0,0 km/h (0 Bft) S-SW 207 0 min 0,000 mm 0,0 UV-I 0 W/m -6,9 C -4,1 C 0,0 km/h (0 Bft) 0,00 %
17.02.2015 07:00 -4,3 C 80 % 1026,6 hPa 0,0 l/m 0,0 km/h (0 Bft) S-SW 198 0 min 0,000 mm 0,0 UV-I 0 W/m -7,2 C -4,3 C 0,0 km/h (0 Bft) 0,00 %
17.02.2015 07:15 -4,0 C 81 % 1026,8 hPa 0,0 l/m 0,0 km/h (0 Bft) S-SW 193 0 min 0,000 mm 0,0 UV-I 0 W/m -6,8 C -4,0 C 0,0 km/h (0 Bft) 0,00 %
17.02.2015 07:30 -3,6 C 81 % 1027,2 hPa 0,0 l/m 0,0 km/h (0 Bft) S-SW 201 0 min 0,000 mm 0,0 UV-I 8 W/m -6,4 C -3,6 C 0,0 km/h (0 Bft) 0,00 %
17.02.2015 07:45 -3,4 C 80 % 1027,4 hPa 0,0 l/m 0,0 km/h (0 Bft) S 186 0 min 0,000 mm 0,0 UV-I 40 W/m -6,3 C -3,4 C 0,0 km/h (0 Bft) 0,00 %
17.02.2015 08:00 -2,4 C 85 % 1027,5 hPa 0,0 l/m 0,0 km/h (0 Bft) S-SW 199 15 min 0,000 mm 0,0 UV-I 93 W/m -4,6 C -2,4 C 0,0 km/h (0 Bft) 0,00 %
17.02.2015 08:15 -1,1 C 84 % 1027,5 hPa 0,0 l/m 0,0 km/h (0 Bft) S-SW 193 15 min 0,000 mm 1,0 UV-I 176 W/m -3,4 C -1,1 C 0,0 km/h (0 Bft) 0,00 %
17.02.2015 08:30 0,0 C 75 % 1027,4 hPa 0,0 l/m 0,7 km/h (0 Bft) S 182 15 min 0,000 mm 1,0 UV-I 189 W/m -3,9 C 0,0 C 4,0 km/h (1 Bft) 0,00 %
17.02.2015 08:45 0,6 C 70 % 1027,6 hPa 0,0 l/m 0,0 km/h (0 Bft) SO 128 15 min 0,000 mm 1,0 UV-I 222 W/m -4,2 C 0,6 C 0,0 km/h (0 Bft) 0,00 %
17.02.2015 09:00 1,1 C 69 % 1027,9 hPa 0,0 l/m 3,2 km/h (1 Bft) O-SO 104 15 min 0,000 mm 1,0 UV-I 265 W/m -3,9 C 1,1 C 4,0 km/h (1 Bft) 0,00 %
17.02.2015 09:15 1,2 C 68 % 1028,1 hPa 0,0 l/m 2,9 km/h (1 Bft) O 83 15 min 0,000 mm 1,0 UV-I 306 W/m -4,0 C 1,2 C 4,0 km/h (1 Bft) 0,00 %
17.02.2015 09:30 1,7 C 66 % 1028,2 hPa 0,0 l/m 1,8 km/h (1 Bft) S 177 15 min 0,000 mm 2,0 UV-I 363 W/m -4,0 C 1,7 C 4,0 km/h (1 Bft) 0,00 %
17.02.2015 09:45 1,9 C 65 % 1028,3 hPa 0,0 l/m 2,9 km/h (1 Bft) SO 127 15 min 0,000 mm 2,0 UV-I 322 W/m -4,0 C 1,9 C 7,9 km/h (2 Bft) 0,00 %
17.02.2015 10:00 2,0 C 65 % 1028,5 hPa 0,0 l/m 6,8 km/h (2 Bft) O 98 15 min 0,000 mm 2,0 UV-I 366 W/m -3,9 C 1,6 C 7,9 km/h (2 Bft) 0,00 %
17.02.2015 10:15 2,1 C 65 % 1028,6 hPa 0,0 l/m 4,3 km/h (1 Bft) O 90 15 min 0,000 mm 2,0 UV-I 371 W/m -3,8 C 2,1 C 7,9 km/h (2 Bft) 0,00 %
17.02.2015 10:30 2,3 C 65 % 1029,0 hPa 0,0 l/m 3,2 km/h (1 Bft) O 97 15 min 0,000 mm 2,0 UV-I 401 W/m -3,6 C 2,3 C 4,0 km/h (1 Bft) 0,00 %
17.02.2015 10:45 2,7 C 68 % 1029,0 hPa 0,0 l/m 2,2 km/h (1 Bft) O-SO 103 15 min 0,000 mm 2,0 UV-I 422 W/m -2,6 C 2,7 C 4,0 km/h (1 Bft) 0,00 %
17.02.2015 11:00 2,8 C 67 % 1029,1 hPa 0,0 l/m 4,3 km/h (1 Bft) O-SO 106 15 min 0,000 mm 2,0 UV-I 443 W/m -2,7 C 2,8 C 7,9 km/h (2 Bft) 0,00 %
17.02.2015 11:15 2,9 C 66 % 1029,3 hPa 0,0 l/m 0,4 km/h (0 Bft) W-NW 292 15 min 0,000 mm 2,0 UV-I 453 W/m -2,8 C 2,9 C 4,0 km/h (1 Bft) 0,00 %
17.02.2015 11:30 3,1 C 67 % 1029,6 hPa 0,0 l/m 3,2 km/h (1 Bft) O-SO 105 15 min 0,000 mm 2,0 UV-I 472 W/m -2,4 C 3,1 C 4,0 km/h (1 Bft) 0,00 %
17.02.2015 11:45 3,4 C 65 % 1029,5 hPa 0,0 l/m 0,7 km/h (0 Bft) O-SO 108 15 min 0,000 mm 2,0 UV-I 475 W/m -2,5 C 3,4 C 4,0 km/h (1 Bft) 0,00 %
17.02.2015 12:00 3,6 C 64 % 1029,5 hPa 0,0 l/m 5,8 km/h (2 Bft) O-SO 120 15 min 0,000 mm 2,0 UV-I 468 W/m -2,6 C 3,6 C 7,9 km/h (2 Bft) 0,00 %
17.02.2015 12:15 3,8 C 63 % 1029,6 hPa 0,0 l/m 4,3 km/h (1 Bft) O 100 15 min 0,000 mm 2,0 UV-I 469 W/m -2,6 C 3,8 C 7,9 km/h (2 Bft) 0,00 %
17.02.2015 12:30 4,1 C 62 % 1029,7 hPa 0,0 l/m 2,9 km/h (1 Bft) SO 138 15 min 0,000 mm 2,0 UV-I 466 W/m -2,5 C 4,1 C 4,0 km/h (1 Bft) 0,00 %
17.02.2015 12:45 4,3 C 63 % 1029,7 hPa 0,0 l/m 2,2 km/h (1 Bft) SO 130 15 min 0,000 mm 2,0 UV-I 450 W/m -2,1 C 4,3 C 4,0 km/h (1 Bft) 0,00 %
17.02.2015 13:00 4,5 C 61 % 1029,9 hPa 0,0 l/m 0,0 km/h (0 Bft) NO 39 15 min 0,000 mm 2,0 UV-I 438 W/m -2,4 C 4,5 C 0,0 km/h (0 Bft) 0,00 %
17.02.2015 13:15 4,7 C 61 % 1029,9 hPa 0,0 l/m 0,0 km/h (0 Bft) W-SW 256 15 min 0,000 mm 2,0 UV-I 417 W/m -2,2 C 4,7 C 0,0 km/h (0 Bft) 0,00 %
17.02.2015 13:30 4,8 C 60 % 1029,9 hPa 0,0 l/m 0,0 km/h (0 Bft) O-NO 77 15 min 0,000 mm 2,0 UV-I 390 W/m -2,3 C 4,8 C 0,0 km/h (0 Bft) 0,00 %
17.02.2015 13:45 4,9 C 61 % 1029,7 hPa 0,0 l/m 1,4 km/h (1 Bft) O 92 15 min 0,000 mm 2,0 UV-I 365 W/m -2,0 C 4,9 C 4,0 km/h (1 Bft) 0,00 %
17.02.2015 14:00 5,1 C 61 % 1030,0 hPa 0,0 l/m 1,4 km/h (1 Bft) O-SO 109 15 min 0,000 mm 2,0 UV-I 338 W/m -1,8 C 5,1 C 4,0 km/h (1 Bft) 0,00 %
17.02.2015 14:15 5,1 C 61 % 1030,1 hPa 0,0 l/m 0,0 km/h (0 Bft) S-SO 160 15 min 0,000 mm 2,0 UV-I 302 W/m -1,8 C 5,1 C 0,0 km/h (0 Bft) 0,00 %
17.02.2015 14:30 5,2 C 61 % 1030,2 hPa 0,0 l/m 0,0 km/h (0 Bft) S 183 15 min 0,000 mm 2,0 UV-I 270 W/m -1,7 C 5,2 C 0,0 km/h (0 Bft) 0,00 %
17.02.2015 14:45 5,3 C 61 % 1030,2 hPa 0,0 l/m 0,0 km/h (0 Bft) S 173 15 min 0,000 mm 1,0 UV-I 250 W/m -1,6 C 5,3 C 0,0 km/h (0 Bft) 0,00 %
17.02.2015 15:00 5,4 C 62 % 1030,4 hPa 0,0 l/m 0,0 km/h (0 Bft) S 179 15 min 0,000 mm 1,0 UV-I 286 W/m -1,3 C 5,4 C 0,0 km/h (0 Bft) 0,00 %
17.02.2015 15:15 5,3 C 61 % 1030,5 hPa 0,0 l/m 0,4 km/h (0 Bft) SO 129 15 min 0,000 mm 1,0 UV-I 244 W/m -1,6 C 5,3 C 4,0 km/h (1 Bft) 0,00 %
17.02.2015 15:30 5,4 C 62 % 1030,6 hPa 0,0 l/m 0,0 km/h (0 Bft) S 173 15 min 0,000 mm 1,0 UV-I 183 W/m -1,3 C 5,4 C 0,0 km/h (0 Bft) 0,00 %
17.02.2015 15:45 5,3 C 61 % 1030,5 hPa 0,0 l/m 0,0 km/h (0 Bft) SO 125 0 min 0,000 mm 1,0 UV-I 130 W/m -1,6 C 5,3 C 0,0 km/h (0 Bft) 0,00 %
17.02.2015 16:00 5,3 C 61 % 1030,7 hPa 0,0 l/m 0,0 km/h (0 Bft) S 175 15 min 0,000 mm 1,0 UV-I 270 W/m -1,6 C 5,3 C 0,0 km/h (0 Bft) 0,00 %
17.02.2015 16:15 5,2 C 61 % 1030,8 hPa 0,0 l/m 0,0 km/h (0 Bft) S-SO 159 15 min 0,000 mm 1,0 UV-I 205 W/m -1,7 C 5,2 C 0,0 km/h (0 Bft) 0,00 %
17.02.2015 16:30 5,1 C 62 % 1031,1 hPa 0,0 l/m 0,0 km/h (0 Bft) S 173 15 min 0,000 mm 1,0 UV-I 138 W/m -1,6 C 5,1 C 0,0 km/h (0 Bft) 0,00 %
17.02.2015 16:45 5,4 C 61 % 1031,2 hPa 0,0 l/m 0,0 km/h (0 Bft) S 176 15 min 0,000 mm 0,0 UV-I 75 W/m -1,5 C 5,4 C 0,0 km/h (0 Bft) 0,00 %
17.02.2015 17:00 4,9 C 61 % 1031,5 hPa 0,0 l/m 0,0 km/h (0 Bft) S-SO 147 0 min 0,000 mm 0,0 UV-I 20 W/m -2,0 C 4,9 C 0,0 km/h (0 Bft) 0,00 %
17.02.2015 17:15 4,1 C 64 % 1031,6 hPa 0,0 l/m 0,4 km/h (0 Bft) S 174 0 min 0,000 mm 0,0 UV-I 0 W/m -2,1 C 4,1 C 4,0 km/h (1 Bft) 0,00 %
17.02.2015 17:30 3,6 C 67 % 1032,0 hPa 0,0 l/m 0,0 km/h (0 Bft) S 184 0 min 0,000 mm 0,0 UV-I 0 W/m -1,9 C 3,6 C 0,0 km/h (0 Bft) 0,00 %
17.02.2015 17:45 2,9 C 70 % 1032,5 hPa 0,0 l/m 0,4 km/h (0 Bft) SO 131 0 min 0,000 mm 0,0 UV-I 0 W/m -2,0 C 2,9 C 4,0 km/h (1 Bft) 0,00 %
17.02.2015 18:00 2,6 C 72 % 1032,7 hPa 0,0 l/m 0,0 km/h (0 Bft) S 173 0 min 0,000 mm 0,0 UV-I 0 W/m -1,9 C 2,6 C 0,0 km/h (0 Bft) 0,00 %
17.02.2015 18:15 2,4 C 69 % 1033,1 hPa 0,0 l/m 0,0 km/h (0 Bft) S 174 0 min 0,000 mm 0,0 UV-I 0 W/m -2,7 C 2,4 C 0,0 km/h (0 Bft) 0,00 %
17.02.2015 18:30 1,9 C 72 % 1033,4 hPa 0,0 l/m 0,0 km/h (0 Bft) S 174 0 min 0,000 mm 0,0 UV-I 0 W/m -2,6 C 1,9 C 0,0 km/h (0 Bft) 0,00 %
17.02.2015 18:45 1,3 C 74 % 1034,1 hPa 0,0 l/m 0,0 km/h (0 Bft) S 175 0 min 0,000 mm 0,0 UV-I 0 W/m -2,8 C 1,3 C 0,0 km/h (0 Bft) 0,00 %
17.02.2015 19:00 1,1 C 74 % 1034,0 hPa 0,0 l/m 0,0 km/h (0 Bft) S 175 0 min 0,000 mm 0,0 UV-I 0 W/m -3,0 C 1,1 C 0,0 km/h (0 Bft) 0,00 %
17.02.2015 19:15 0,8 C 76 % 1034,5 hPa 0,0 l/m 0,0 km/h (0 Bft) S 175 0 min 0,000 mm 0,0 UV-I 0 W/m -2,9 C 0,8 C 0,0 km/h (0 Bft) 0,00 %
17.02.2015 19:30 0,5 C 78 % 1034,7 hPa 0,0 l/m 0,0 km/h (0 Bft) S 175 0 min 0,000 mm 0,0 UV-I 0 W/m -2,9 C 0,5 C 0,0 km/h (0 Bft) 0,00 %
17.02.2015 19:45 0,5 C 77 % 1035,2 hPa 0,0 l/m 0,0 km/h (0 Bft) S 175 0 min 0,000 mm 0,0 UV-I 0 W/m -3,1 C 0,5 C 0,0 km/h (0 Bft) 0,00 %
17.02.2015 20:00 0,6 C 74 % 1035,3 hPa 0,0 l/m 0,0 km/h (0 Bft) S 176 0 min 0,000 mm 0,0 UV-I 0 W/m -3,5 C 0,6 C 0,0 km/h (0 Bft) 0,00 %
17.02.2015 20:15 0,8 C 72 % 1035,6 hPa 0,0 l/m 0,0 km/h (0 Bft) S 177 0 min 0,000 mm 0,0 UV-I 0 W/m -3,7 C 0,8 C 0,0 km/h (0 Bft) 0,00 %
17.02.2015 20:30 1,1 C 71 % 1035,6 hPa 0,0 l/m 0,0 km/h (0 Bft) O-SO 114 0 min 0,000 mm 0,0 UV-I 0 W/m -3,6 C 1,1 C 0,0 km/h (0 Bft) 0,00 %
17.02.2015 20:45 1,1 C 71 % 1035,9 hPa 0,0 l/m 0,0 km/h (0 Bft) S 174 0 min 0,000 mm 0,0 UV-I 0 W/m -3,6 C 1,1 C 0,0 km/h (0 Bft) 0,00 %
17.02.2015 21:00 0,6 C 74 % 1036,4 hPa 0,0 l/m 0,0 km/h (0 Bft) S 176 0 min 0,000 mm 0,0 UV-I 0 W/m -3,5 C 0,6 C 0,0 km/h (0 Bft) 0,00 %
17.02.2015 21:15 0,0 C 76 % 1037,0 hPa 0,0 l/m 0,0 km/h (0 Bft) SW 220 0 min 0,000 mm 0,0 UV-I 0 W/m -3,7 C 0,0 C 0,0 km/h (0 Bft) 0,00 %
17.02.2015 21:30 -0,5 C 78 % 1037,2 hPa 0,0 l/m 0,0 km/h (0 Bft) S-SW 192 0 min 0,000 mm 0,0 UV-I 0 W/m -3,9 C -0,5 C 0,0 km/h (0 Bft) 0,00 %
17.02.2015 21:45 -0,9 C 80 % 1037,4 hPa 0,0 l/m 0,0 km/h (0 Bft) S-SW 209 0 min 0,000 mm 0,0 UV-I 0 W/m -3,9 C -0,9 C 0,0 km/h (0 Bft) 0,00 %
17.02.2015 22:00 -0,8 C 81 % 1037,9 hPa 0,0 l/m 0,0 km/h (0 Bft) S-SW 208 0 min 0,000 mm 0,0 UV-I 0 W/m -3,6 C -0,8 C 0,0 km/h (0 Bft) 0,00 %
17.02.2015 22:15 -0,9 C 81 % 1038,0 hPa 0,0 l/m 0,0 km/h (0 Bft) SW 216 0 min 0,000 mm 0,0 UV-I 0 W/m -3,7 C -0,9 C 0,0 km/h (0 Bft) 0,00 %
17.02.2015 22:30 -1,4 C 82 % 1038,3 hPa 0,0 l/m 0,0 km/h (0 Bft) S-SW 211 0 min 0,000 mm 0,0 UV-I 0 W/m -4,1 C -1,4 C 0,0 km/h (0 Bft) 0,00 %
17.02.2015 22:45 -1,7 C 83 % 1038,7 hPa 0,0 l/m 0,0 km/h (0 Bft) S-SW 211 0 min 0,000 mm 0,0 UV-I 0 W/m -4,2 C -1,7 C 0,0 km/h (0 Bft) 0,00 %
17.02.2015 23:00 -1,5 C 83 % 1039,0 hPa 0,0 l/m 0,0 km/h (0 Bft) S-SW 199 0 min 0,000 mm 0,0 UV-I 0 W/m -4,0 C -1,5 C 0,0 km/h (0 Bft) 0,00 %
17.02.2015 23:15 -1,2 C 83 % 1039,1 hPa 0,0 l/m 1,4 km/h (1 Bft) W-SW 237 0 min 0,000 mm 0,0 UV-I 0 W/m -3,7 C -1,2 C 4,0 km/h (1 Bft) 0,00 %
17.02.2015 23:30 -1,1 C 83 % 1039,0 hPa 0,0 l/m 0,0 km/h (0 Bft) W-SW 250 0 min 0,000 mm 0,0 UV-I 0 W/m -3,6 C -1,1 C 0,0 km/h (0 Bft) 0,00 %
17.02.2015 23:45 -0,9 C 83 % 1039,4 hPa 0,0 l/m 0,0 km/h (0 Bft) S-SW 203 0 min 0,000 mm 0,0 UV-I 0 W/m -3,4 C -0,9 C 0,0 km/h (0 Bft) 0,00 %
_ Min-Zeit 07:00 13:30 00:00 - 00:00 - - - - - - 07:00 07:00 00:00 00:00
Minimum _ -4,3 C 60 % 1022,1 hPa - 0,0 km/h (0 Bft) - - - - - - -7,2 C -4,3 C 0,0 km/h (0 Bft) 0,00 %
_ Max-Zeit 15:00 08:00 23:45 00:00 10:00 - - 08:00 00:00 09:30 11:45 15:00 15:00 09:45 00:00
Maximum _ 5,4 C 85 % 1039,4 hPa 0,0 l/m 6,8 km/h
O (2 Bft)
- - 15 min 0,000 mm 2,0 UV-I 475 W/m -1,3 C 5,4 C 7,9 km/h
SO (2 Bft)
0,00 %
Durchschnitt _ 0,5 C 73 % 1029,7 hPa #0,0 l/m 0,6 km/h (0 Bft) O - #8:45 h #0,000 mm 1,6 UV-I 296 W/m -3,9 C 0,5 C 1,2 km/h (1 Bft) 0,00 %